Location: Unspecified
(0.0000°N, 0.0000°E)
Time: 09:32:33
(UTC+00:00)

ARIANE 6 FM1 Upper Stage - Pass Details

Date: 14 April 2026
Orbit: 524 x 604 km, 62.0° (Epoch: 10 April)

Event Time Altitude Azimuth Distance (km) Brightness Sun altitude
Exits shadow 04:25:20 10° 350° (N) 1,768 5.2 -23.4°
Maximum altitude 04:29:12 50° 66° (ENE) 690 3.4 -22.5°
Drops below altitude 10° 04:33:10 10° 142° (SE) 1,823 5.6 -21.5°
Sets 04:35:27 0° 147° (SSE) 2,734 6.5 -20.9°
